ALSAT 1B (41785 NORAD) Tracking and Keplerian Element Data

This shows tracking and keplerian element data for the satellite.

Feedback or suggestion? Click here.




ElementValue
Catalog41785
NameALSAT 1B
Epoch Orbit11793
Epoch Day345.82344779
Epoch Year2018
RAAN44.6611
Inclination98.0936
Eccentricity0.0029856
Argument of Perigee255.2712
Mean Anonmoly104.5173
Mean Motion14.63304535
Decay Rate1E-07
L11 41785U 16059C 18345.82344779 .00000010 00000-0 11333-4 0 9997
L22 41785 98.0936 44.6611 0029856 255.2712 104.5173 14.63304535117934

Live tracking and technical data element details for ALSAT 1B (NORAD 41785). ALSAT 1B can be tracked NOW for your location showing map with azimuth and elevation plus other details from your city location.

Track the satellite on the map from your city or location and see movement details for azimuth, elevation, latitude, longitude, range, height, and movement on the map or in text.







IsCatalogInMostPopularTable: catalog: 41785, numindb: 96
Update: records affected: 1



GetName: 41785 ALSAT 1B

Hit Count: updated at: Thu, 13 Dec 2018 04:06:18 GMT